Location: Buchov
(49.6128°N, 14.6600°E)
Time: 16:55:06
(UTC+00:00)

Daily predictions for brighter satellites

Satellite Brightness Start Highest point End
(mag) Time Altitude Azimuth Time Altitude Azimuth Time Altitude Azimuth
Cosmos 1238 Rocket 4.5 19:49:27 10° NNW 19:54:23 53° W 20:00:06 10° SSW
Cosmos 1656 Rocket 4.4 19:49:10 10° NW 19:54:24 48° WSW 19:59:40 10° S
NOSS 3-4 (A) 4.1 19:48:07 10° NW 19:55:00 74° SW 20:02:50 10° SSE
NOSS 3-4 (C) 4.1 19:48:12 10° NW 19:55:05 74° SW 20:02:53 10° SSE
Cosmos 1553 Rocket 4.4 19:51:59 10° SSW 19:58:19 71° WNW 20:04:45 10° N
USA 234 3.7 19:54:00 10° ESE 20:00:28 65° NNE 20:06:58 10° WNW
Cosmos 1190 Rocket 4.3 19:56:36 10° NNW 20:01:52 59° ENE 20:07:07 10° SE
GENESIS II 4.3 20:00:37 10° NW 20:04:41 83° SW 20:08:44 10° SE
Meteor 2-10 Rocket 3.6 20:01:57 10° NNW 20:07:04 76° W 20:12:03 10° S
Okean 1 Rocket 4.1 20:03:16 10° NNW 20:07:35 46° W 20:11:50 10° SSW
Cosmos 407 Rocket 3.5 20:03:55 10° NNW 20:09:10 88° WSW 20:14:19 10° SSE
APEX 4.2 20:05:07 10° SSW 20:11:03 86° WNW 20:15:59 10° NNE
SL-14 R/B 4.3 20:07:41 10° SSW 20:11:26 48° WNW 20:15:14 10° N
S3M 4.1 20:05:43 10° S 20:11:57 85° W 20:18:09 10° N
Cosmos 1455 Rocket 3.0 20:08:29 10° N 20:12:53 77° E 20:17:12 10° SSE
USA 245 3.9 20:09:05 10° S 20:14:15 76° WSW 20:18:26 10° NNW
SPOT 5 2.7 20:13:08 10° SSE 20:17:39 79° ENE 20:22:03 10° NNW
Cosmos 2056 Rocket 4.0 20:13:45 10° S 20:18:45 42° ESE 20:23:51 10° NE
Meteor 2-5 Rocket 3.8 20:13:28 10° S 20:18:54 61° E 20:24:22 10° NNE
Cosmos 1271 Rocket 3.4 20:18:58 10° N 20:22:48 42° ENE 20:26:12 12° SE
Cosmos 1300 4.1 20:20:43 10° NNW 20:24:13 36° W 20:27:42 10° SSW
Cosmos 1025 Rocket 3.0 20:21:19 10° S 20:25:32 67° E 20:29:49 10° NNE
Cosmos 676 Rocket 4.3 20:23:03 10° NNW 20:28:21 60° ENE 20:33:07 12° SE
ERS-1 Rocket 3.0 20:24:43 10° SSE 20:29:46 89° ENE 20:34:51 10° NNW
USA 32 4.1 20:24:49 10° S 20:29:57 62° E 20:35:08 10° NNE
Cosmos 1420 Rocket 4.5 20:26:12 10° S 20:31:05 42° ESE 20:36:04 10° NE
Cosmos 1607 4.3 20:26:07 10° S 20:31:57 43° ESE 20:37:46 10° NE
Cosmos 1140 Rocket 4.0 20:27:37 10° NNW 20:32:42 54° WSW 20:37:44 10° S
NOSS 2-1 (E) 4.4 20:32:01 10° NW 20:36:15 54° NE 20:42:09 10° ESE
Cosmos 1943 4.1 20:32:58 10° SW 20:38:31 53° NW 20:44:04 10° NNE
Cosmos 1536 Rocket 4.4 20:36:41 14° SSE 20:39:54 33° E 20:43:49 10° NNE
CZ-2C R/B 3.7 20:36:09 10° NNE 20:40:48 68° ESE 20:45:19 10° S
Lacrosse 5 2.2 20:38:21 10° NW 20:43:29 68° NNE 20:48:34 10° ESE
Cosmos 2184 Rocket 4.3 20:37:52 10° N 20:43:54 53° ENE 20:49:03 14° SSE
Cosmos 1975 Rocket 3.5 20:41:52 10° SSW 20:46:18 65° WNW 20:50:44 10° N
Helios 1A Rocket 3.6 20:43:51 10° S 20:47:48 51° W 20:51:48 10° NNW
Cosmos 1954 Rocket 4.0 20:44:34 10° NNW 20:49:54 88° WSW 20:54:15 15° SSE
Resurs 01 Rocket 4.2 20:51:41 10° WSW 20:54:05 14° W 20:56:30 10° NW
Lacrosse 4 Rocket 3.7 20:55:13 10° WSW 20:58:46 27° NW 21:02:17 10° NNE
Tiangong 2.6 20:57:58 10° SW 21:00:12 19° S 21:00:12 19° S
Cosmos 2228 3.6 20:57:31 10° N 21:01:35 43° ENE 21:04:23 18° SE
Cosmos 1544 Rocket 3.9 20:59:45 10° NNW 21:04:02 62° W 21:07:38 14° S
Cosmos 1703 3.8 21:03:36 20° SSE 21:05:55 42° E 21:09:35 10° NNE
Terra 2.4 21:02:52 13° S 21:07:05 54° W 21:11:46 10° NNW
FALCON 9 DEB 3.0 21:04:28 10° WSW 21:07:44 85° NNW 21:11:01 10° ENE
USA 267 3.2 21:01:38 10° ENE 21:08:12 78° SE 21:14:46 10° SW
SAR-Lupe-1 4.3 21:05:17 10° NNE 21:08:47 50° E 21:10:55 21° S
SL-8 R/B 3.6 21:05:01 10° W 21:09:50 78° S 21:14:40 10° E
Cosmos 1980 Rocket 4.0 21:06:39 10° NNW 21:11:22 25° NE 21:16:02 10° E
Cosmos 1455 2.8 21:08:07 10° NNW 21:11:49 51° W 21:14:42 15° SSW
ALOS 2 4.4 21:09:14 10° ESE 21:12:28 21° ENE 21:15:47 10° NNE
Meteor 1-24 Rocket 4.1 21:07:48 10° SSW 21:13:00 58° WNW 21:18:21 10° N
Cosmos 1697 Rocket 3.6 21:10:53 10° NNW 21:16:13 42° NE 21:20:59 13° ESE
NOSS 2-1 (C) 4.0 21:13:21 10° NW 21:17:45 79° SW 21:22:11 19° SE
Cosmos 1371 Rocket 4.5 21:14:02 10° SW 21:19:12 64° WNW 21:24:29 10° NNE
RESURS DK-1 3.3 21:16:19 10° NNW 21:20:15 40° NE 21:23:13 16° ESE
Cosmos 1452 Rocket 3.9 21:17:03 18° S 21:20:40 46° ESE 21:25:42 10° NNE
ADEOS Rocket 4.3 21:18:38 12° SE 21:24:36 40° ENE 21:31:30 10° N
ARIANE 5 R/B 3.5 21:23:37 15° SSW 21:27:06 43° W 21:31:23 10° NNW
NOSS 2-1 (D) 4.1 21:23:40 10° NW 21:28:07 68° SW 21:32:17 20° SSE
Spot 4 4.5 21:25:19 19° SE 21:28:29 45° ENE 21:33:03 10° N
ASTEX 1 3.7 21:24:04 10° NNE 21:28:59 54° E 21:32:06 22° SSE
Lacrosse 5 rocket 1.7 21:26:06 10° WNW 21:29:50 45° SW 21:31:47 25° SSE
Meteor 2-1 Rocket 4.3 21:25:28 10° N 21:30:58 65° ENE 21:34:38 21° SSE
Cosmos 2084 3.0 21:27:29 10° SW 21:31:19 74° SE 21:35:12 10° NE
Cosmos 2058 Rocket 4.2 21:32:58 10° N 21:36:56 32° ENE 21:39:28 18° ESE
Cosmos 2074 Rocket 4.3 21:30:56 10° NNW 21:37:10 66° W 21:42:02 17° S
ATLAS 2AS CENTAUR R/B 3.0 21:33:28 10° NW 21:40:24 56° WSW 21:44:51 21° SSE
GP-B 3.4 21:38:58 10° N 21:43:20 54° E 21:45:40 25° SSE
Cosmos 1656 3.7 21:37:59 10° NNW 21:43:26 72° WSW 21:46:54 23° SSE
USA 234 3.4 21:38:51 19° SSE 21:43:35 58° SW 21:50:04 10° WNW
Cosmos 1892 Rocket 4.2 21:45:13 25° SE 21:47:18 41° E 21:51:27 10° NNE
Cosmos 1833 Rocket 3.1 21:44:38 23° SSE 21:47:46 44° ESE 21:53:05 10° NE
Cosmos 2154 Rocket 4.2 21:50:19 10° NNW 21:56:31 67° W 22:00:52 20° S
Nadezhda 1 Rocket 4.0 21:54:38 18° SSW 21:59:21 81° W 22:05:28 10° N
Cosmos 2082 Rocket 3.4 21:59:42 20° SE 22:01:57 26° ESE 22:06:34 10° NE
Cosmos 1741 Rocket 4.2 21:58:46 10° NNW 22:04:01 62° WSW 22:07:02 25° S
Cosmos 2344 4.2 22:00:43 10° NW 22:09:28 89° NE 22:20:43 13° SE
Cosmos 1869 4.4 22:10:12 10° N 22:13:43 32° ENE 22:15:29 22° ESE
Cosmos 1606 Rocket 4.4 22:21:14 10° NNW 22:25:17 41° W 22:27:26 24° SSW
Cosmos 968 Rocket 3.6 22:20:13 10° NNW 22:25:25 72° ENE 22:28:30 25° SE
H-2A R/B 3.4 22:21:12 10° NNE 22:25:25 73° ESE 22:27:16 32° S
Lacrosse 5 2.7 22:21:38 10° WNW 22:26:13 34° SW 22:27:56 27° SSW
COSMOS 2406 3.5 22:25:00 26° S 22:28:03 54° ESE 22:33:41 10° NE
Cosmos 1633 4.3 22:30:47 18° ESE 22:31:39 19° E 22:34:13 10° NE
Meteor 1-11 4.2 22:30:33 26° S 22:33:54 86° E 22:39:31 10° NNE
SL-8 Rocket 4.0 22:29:28 10° N 22:35:47 83° W 22:39:30 26° S
Cosmos 2369 3.7 22:31:58 10° NNW 22:37:44 89° ENE 22:41:14 25° SSE
SJ 16-02 3.8 22:35:58 10° N 22:39:01 18° NE 22:42:03 10° E
Cosmos 2218 Rocket 4.0 22:32:58 10° N 22:39:24 90° NE 22:43:17 26° S
Cosmos 2341 Rocket 4.2 22:34:58 10° NNW 22:41:16 65° W 22:45:04 25° SSW
SL-16 R/B 3.7 22:37:56 10° NNW 22:43:01 32° NE 22:48:04 10° ESE
FALCON 9 DEB 4.2 22:41:05 10° WNW 22:44:15 44° N 22:47:25 10° ENE
Cosmos 1408 2.6 22:43:33 37° SSW 22:44:43 64° W 22:48:10 10° N
Cosmos 1825 2.3 22:46:54 39° SSE 22:48:04 61° E 22:51:47 10° NNE
ALOS 2 3.0 22:46:37 30° SSW 22:48:29 52° W 22:52:47 10° NNW
Cosmos 2366 rocket 4.0 22:42:42 10° NNW 22:49:01 79° W 22:52:47 26° S
Cosmos 1606 4.4 22:46:11 10° NNE 22:49:25 25° ENE 22:51:30 16° ESE
USA 267 4.0 22:44:44 10° ENE 22:51:06 56° NNW 22:57:27 10° W
Cosmos 1900 4.5 22:45:59 10° NW 22:51:06 64° WSW 22:53:35 30° SSE
Cosmos 1867 3.8 22:46:05 10° NW 22:51:34 68° NE 22:56:07 15° SE
SL-8 R/B 3.7 22:47:29 10° W 22:52:15 62° SSW 22:57:01 10° ESE
Cosmos 1980 Rocket 2.2 22:50:17 10° NNW 22:56:00 78° WSW 22:59:14 27° SSE
Cosmos 967 Rocket 4.5 22:51:24 20° SSW 22:56:10 83° SE 23:02:39 10° NE
Cosmos 807 4.4 22:54:03 10° N 22:57:51 76° ENE 22:58:47 44° SSE
RESURS DK-1 3.7 22:54:38 10° NW 22:58:04 25° WSW 22:59:03 23° SW
Cosmos 1697 Rocket 3.4 22:54:59 10° NW 23:00:11 39° WSW 23:02:42 25° SSW
Cosmos 1812 Rocket 3.8 22:57:15 10° N 23:01:44 65° ENE 23:03:53 29° SSE
Cosmos 1992 Rocket 4.5 23:01:48 28° SSE 23:04:09 47° ESE 23:09:10 10° NNE
Cosmos 1892 3.5 23:06:34 27° SW 23:08:09 42° WNW 23:11:45 10° N
ERS-2 2.1 23:04:35 10° N 23:08:10 73° WNW 23:09:26 38° SSW
ADEOS Rocket 3.8 23:05:35 24° SSW 23:09:49 54° W 23:17:12 10° NNW
Cosmos 2058 4.4 23:08:17 20° SE 23:10:06 27° E 23:13:39 10° NNE
USA 276 1.7 23:10:14 40° WSW 23:11:09 83° SSE 23:14:04 10° E
Cosmos 2084 Rocket 3.1 23:07:31 10° NW 23:11:25 77° SW 23:13:11 32° SSE
In-Cosmos 22 Rocket 4.3 23:08:21 26° SSW 23:11:41 72° WNW 23:17:14 10° N
Cosmos 2058 Rocket 4.4 23:11:03 10° NNW 23:14:51 29° W 23:16:43 21° SW
Cosmos 1602 Rocket 3.5 23:15:24 34° S 23:17:13 79° E 23:21:33 10° NNE
Aureole 1 Rocket 4.3 23:12:32 10° NNW 23:19:03 83° ENE 23:25:14 18° SSE
Cosmos 2181 Rocket 4.3 23:15:18 22° SSW 23:19:15 58° WNW 23:25:23 10° N
Cosmos 2278 3.7 23:18:17 10° NNW 23:24:01 78° WSW 23:27:31 25° SSE
Cosmos 1302 Rocket 4.3 23:21:09 21° SW 23:24:32 61° WNW 23:29:43 10° NNE
Cosmos 2322 Rocket 3.2 23:19:47 10° NNW 23:25:13 44° NE 23:30:37 10° SE
SL-19 R/B 4.1 23:26:15 35° SE 23:27:33 71° ENE 23:31:21 10° NNW
Cosmos 1934 Rocket 4.3 23:24:32 10° N 23:30:33 58° ENE 23:34:59 19° SSE
CRYOSAT 2 4.4 23:29:07 28° SSE 23:31:43 82° E 23:36:39 10° N
Cosmos 1833 Rocket 3.9 23:26:34 10° WSW 23:31:47 38° NW 23:37:02 10° NNE
CZ-2D R/B 4.0 23:31:32 10° NE 23:35:15 19° E 23:38:50 10° SE
Geosat 3.9 23:35:56 25° SSE 23:38:57 74° WSW 23:44:00 10° NNW
MOZ.5/SAFIR/RUBIN 5/SL-8 4.4 23:39:27 17° SE 23:42:57 53° ENE 23:47:35 10° N
Cosmos 1626 Rocket 4.5 23:42:03 23° SW 23:44:15 39° WNW 23:48:20 10° N
Cosmos 2082 Rocket 2.6 23:41:31 19° SW 23:45:37 62° WNW 23:51:19 10° NNE
Cosmos 1821 Rocket 4.2 23:41:04 10° NNW 23:47:15 60° W 23:50:56 25° SSW
ATLAS 5 CENTAUR R/B 1.8 23:51:03 32° SSE 23:52:11 42° ESE 23:56:07 10° NE
Cosmos 1238 4.3 23:52:31 43° SW 23:53:16 63° W 23:56:19 10° N
Cosmos-2242 3.5 23:51:41 10° NNW 23:55:46 45° W 23:57:29 29° SSW
